Flag for Germany Weather past 2 weeks in Radebeul, Saxony, Germany

Now
42 °F

Overcast.


Feels Like: 36 °F
Forecast: 29 / 37 °F
Wind: 9 mph from West

Location: Dresden-Klotzsche

Current Time: Dec 25, 2014 at 4:55:57 PM

Latest Report: Dec 25, 2014 at 3:00 PM


Visibility: 22 mi

Pressure: 30.06 "Hg

Humidity: 69%

Dew point: 32 °F

Location of RadebeulLocation

Historic Weather in Radebeul — Graph

°F

Radebeul temperature yesterday

Maximum temperature yesterday: 49 °F (at 12:00 AM)
Minimum temperature yesterday: 43 °F (at 11:00 PM)
Average temperature yesterday: 46 °F

Past Weeks' High & Low Weather Summary

 TemperatureHumidityPressure
High54 °F (Dec 19, 2:00 AM)100% (Dec 14, 9:00 PM)30.32 "Hg (Dec 14, 9:00 PM)
Low33 °F (Dec 11, 7:00 AM)62% (Dec 15, 6:00 PM)29.56 "Hg (Dec 12, 11:00 PM)
Average43 °F81%29.93 "Hg
* Reported Dec 10 3:00 PM — Dec 25 3:00 PM, Radebeul, Weather by CustomWeather, © 2014

Note: Actual official high and low records may vary slightly from our data, if they occured in-between our weather recording intervals... More about our weather records

Advertising

Radebeul weather history for previous 24 hours

 ConditionsComfort  
Time TempWeatherWind HumidityBarometerVisibility
3:00 PM
Dec 25
42 °FOvercast.9 mph69%30.06 "Hg22 mi
2:00 PM42 °FOvercast.9 mph69%30.06 "Hg22 mi
1:00 PM42 °FOvercast.10 mph68%30.06 "Hg19 mi
12:00 PM42 °FPartly sunny.10 mph67%30.07 "Hg22 mi
11:00 AM40 °FPartly sunny.10 mph72%30.09 "Hg22 mi
9:00 AM37 °FScattered clouds.7 mph80%30.09 "Hg19 mi
8:00 AM36 °FPassing clouds.7 mph83%30.08 "Hg22 mi
7:00 AM37 °FPassing clouds.6 mph85%30.08 "Hg22 mi
6:00 AM37 °FPassing clouds.6 mph86%30.06 "Hg16 mi
5:00 AM38 °FPassing clouds.6 mph88%30.05 "Hg14 mi
3:00 AM39 °FLight rain. Low clouds.5 mph94%30.04 "Hg14 mi
2:00 AM39 °FLight rain. Low clouds.6 mph93%30.04 "Hg11 mi
1:00 AM41 °FLight rain. Overcast.8 mph88%30.01 "Hg7 mi
12:00 AM42 °FLight rain. Low clouds.8 mph89%30.00 "Hg6 mi
11:00 PM
Dec 24
43 °FSprinkles. Low clouds.7 mph94%29.97 "Hg6 mi
9:00 PM46 °FOvercast.9 mph79%29.92 "Hg14 mi
8:00 PM46 °FOvercast.12 mph82%29.93 "Hg14 mi
7:00 PM45 °FLight rain. Overcast.12 mph85%29.92 "Hg12 mi
6:00 PM45 °FLight rain. Overcast.12 mph84%29.92 "Hg11 mi
5:00 PM46 °FLight rain. Overcast.12 mph78%29.93 "Hg16 mi
Weather by CustomWeather, © 2014

See weather overviewHow to use our weather pages